GABCG TBPB-MDPC

Flight info

Callsign GABCG
Flight time N/A
Altitude 1000
Route DCT
Aircraft C152/L-V/N

Departure

Time 2026-04-30 19:03
Airport Grantley Adams International Airport (TBPB)

Arrival

Time N/A
Airport Punta Cana International Airport (MDPC)
Time Latitude Longitude Altitude Speed Heading
2026-04-30 19:02 13.09134 -59.55595 2043 ft 109 kts 260°
2026-04-30 19:03 13.08963 -59.57121 2161 ft 105 kts 255°
2026-04-30 19:03 13.08690 -59.58645 2253 ft 114 kts 255°
2026-04-30 19:04 13.08066 -59.60041 2395 ft 104 kts 220°
2026-04-30 19:04 13.07794 -59.61543 2370 ft 119 kts 284°
2026-04-30 19:05 13.08415 -59.63125 2268 ft 115 kts 309°
2026-04-30 19:05 13.09536 -59.64435 2050 ft 115 kts 336°
2026-04-30 19:06 13.11031 -59.64964 1910 ft 108 kts 349°
2026-04-30 19:06 13.11789 -59.65198 1636 ft 128 kts 345°
2026-04-30 19:06 13.12668 -59.66691 1156 ft 127 kts 250°
2026-04-30 19:07 13.11426 -59.67317 1027 ft 93 kts 149°
2026-04-30 19:07 13.11028 -59.66852 1009 ft 86 kts 120°
2026-04-30 19:08 13.10462 -59.65784 1002 ft 85 kts 115°
2026-04-30 19:08 13.09965 -59.64748 1003 ft 79 kts 115°
2026-04-30 19:08 13.09728 -59.64225 963 ft 83 kts 114°
2026-04-30 19:09 13.09264 -59.63156 865 ft 85 kts 114°
2026-04-30 19:09 13.09021 -59.62601 850 ft 86 kts 114°
2026-04-30 19:09 13.08765 -59.62038 854 ft 88 kts 114°
2026-04-30 19:10 13.08142 -59.60940 841 ft 91 kts 127°
2026-04-30 19:10 13.07309 -59.60005 956 ft 89 kts 130°
2026-04-30 19:11 13.06870 -59.59549 966 ft 88 kts 131°
2026-04-30 19:11 13.06046 -59.58681 950 ft 82 kts 128°
2026-04-30 19:11 13.05812 -59.58174 961 ft 78 kts 110°
2026-04-30 19:12 13.05615 -59.57646 1001 ft 82 kts 109°
2026-04-30 19:12 13.05437 -59.57076 1017 ft 86 kts 105°
2026-04-30 19:12 13.05311 -59.56527 1008 ft 73 kts 103°
2026-04-30 19:13 13.05339 -59.55601 993 ft 65 kts 71°
2026-04-30 19:13 13.06004 -59.55026 980 ft 63 kts 74°
2026-04-30 19:13 13.06151 -59.54584 1027 ft 70 kts 81°
2026-04-30 19:14 13.06295 -59.54067 1038 ft 82 kts 77°
2026-04-30 19:14 13.06461 -59.53461 969 ft 91 kts 77°
2026-04-30 19:14 13.06601 -59.52821 790 ft 89 kts 82°
2026-04-30 19:14 13.06747 -59.52235 655 ft 83 kts 82°
2026-04-30 19:15 13.06880 -59.51685 517 ft 75 kts 80°
2026-04-30 19:15 13.07087 -59.50755 220 ft 59 kts 71°
2026-04-30 19:15 13.07180 -59.50392 169 ft 45 kts 73°
2026-04-30 19:16 13.07254 -59.50108 169 ft 50 kts 77°
2026-04-30 19:16 13.07347 -59.49686 203 ft 66 kts 76°
2026-04-30 19:16 13.07961 -59.49590 411 ft 76 kts 285°
2026-04-30 19:17 13.07987 -59.50147 482 ft 85 kts 260°
2026-04-30 19:17 13.07955 -59.51475 800 ft 93 kts 272°
2026-04-30 19:17 13.08005 -59.52193 927 ft 100 kts 266°
2026-04-30 19:18 13.07956 -59.53187 966 ft 112 kts 263°
2026-04-30 19:18 13.07833 -59.54498 1106 ft 110 kts 244°
2026-04-30 19:18 13.07275 -59.54977 1072 ft 103 kts 185°
2026-04-30 19:19 13.06646 -59.54726 1010 ft 106 kts 130°
2026-04-30 19:19 13.06428 -59.54030 910 ft 108 kts 93°
2026-04-30 19:19 13.06672 -59.52679 737 ft 90 kts 81°
2026-04-30 19:20 13.06820 -59.52063 545 ft 87 kts 78°
2026-04-30 19:20 13.06932 -59.51494 382 ft 76 kts 80°
2026-04-30 19:20 13.07129 -59.50597 199 ft 55 kts 77°
2026-04-30 19:21 13.07215 -59.50248 169 ft 44 kts 75°
2026-04-30 19:21 13.07366 -59.50195 167 ft 11 kts 14°
2026-04-30 19:22 13.07415 -59.50086 167 ft 7 kts 75°